Home   Weather   Saipan   Past weeks
Flag for Northern Mariana Islands

Past Weather in Saipan, Northern Mariana Islands — Yesterday and Last 2 Weeks

Now
83 °F

Scattered clouds.


Feels Like: 88 °F
Forecast: 81 / 74 °F
Wind: 12 mph from East

Location: Saipan International Airport

Current Time: Apr 23, 2019 at 6:43:19 pm

Latest Report: Apr 23, 2019 at 5:54 pm


Visibility: 10 mi

Pressure: 29.95 "Hg

Humidity: 70%

Dew Point: 72 °F

Location of SaipanLocation

Past Weather in Saipan — Graph

°F

Saipan Temperature Yesterday

Maximum temperature yesterday: 90 °F (at 12:54 pm)
Minimum temperature yesterday: 77 °F (at 2:47 am)
Average temperature yesterday: 82 °F

High & Low Weather Summary for the Past Weeks

 TemperatureHumidityPressure
High90 °F (Apr 22, 12:54 pm)94% (Apr 22, 3:02 am)30.06 "Hg (Apr 22, 3:02 am)
Low75 °F (Apr 9, 4:54 am)50% (Apr 19, 12:54 pm)29.86 "Hg (Apr 22, 3:02 pm)
Average82 °F73%29.97 "Hg
* Reported Apr 8 4:54 pm — Apr 23 4:54 pm, Saipan. Weather by CustomWeather, © 2019

Note: Actual official high and low records may vary slightly from our data, if they occured in-between our weather recording intervals... More about our weather records

Advertising

Saipan Weather History for the Previous 24 Hours

Scroll right to see more
 ConditionsComfort  
Time TempWeatherWind HumidityBarometerVisibility
4:54 pm
Tue, Apr 23
85 °FPassing clouds.16 mph65%29.93 "Hg10 mi
3:54 pm85 °FPassing clouds.14 mph65%29.94 "Hg10 mi
2:54 pm87 °FScattered clouds.17 mph61%29.94 "Hg10 mi
1:54 pm87 °FPartly sunny.16 mph63%29.96 "Hg10 mi
12:54 pm89 °FScattered clouds.15 mph59%29.98 "Hg10 mi
11:54 am83 °FScattered clouds.17 mph70%30.00 "Hg9 mi
10:54 am88 °FScattered clouds.14 mph61%30.01 "Hg10 mi
9:54 am87 °FScattered clouds.14 mph63%30.02 "Hg10 mi
8:54 am86 °FPassing clouds.13 mph63%30.02 "Hg10 mi
7:54 am83 °FSunny.14 mph68%30.01 "Hg10 mi
6:54 am79 °FScattered clouds.7 mph79%30.00 "Hg10 mi
5:54 am79 °FClear.9 mph77%29.99 "Hg10 mi
4:54 am78 °FPassing clouds.9 mph79%29.97 "Hg10 mi
3:54 am78 °FClear.8 mph74%29.97 "Hg10 mi
2:54 am79 °FPassing clouds.10 mph72%29.97 "Hg10 mi
1:54 am80 °FPassing clouds.12 mph69%29.98 "Hg10 mi
12:54 am80 °FPassing clouds.12 mph74%29.99 "Hg10 mi
11:54 pm
Mon, Apr 22
80 °FPassing clouds.10 mph74%30.00 "Hg10 mi
10:54 pm80 °FPassing clouds.9 mph76%30.01 "Hg10 mi
9:54 pm80 °FPassing clouds.12 mph76%30.02 "Hg10 mi
8:54 pm81 °FClear.9 mph74%30.01 "Hg10 mi
7:54 pm81 °FPassing clouds.9 mph77%29.99 "Hg10 mi
6:54 pm82 °FPassing clouds.12 mph72%29.96 "Hg10 mi
Weather by CustomWeather, © 2019

See weather overview